FW1746 Weather Reports


time (UTC)temp
C
wind
direction
speed
KPH
gust
KPH
rain 1hr
cm
rain 24hr
cm
rain mn
cm
humidity
%
barometer
mb
20260507130056 13 61 6.4 16.1 0.00 0.00 0.00 57 1018.4
20260507124554 13 48 6.4 16.1 0.00 0.00 0.00 57 1018.4
20260507123054 13 79 6.4 14.5 0.00 0.00 0.00 56 1018.3
20260507121551 13 51 8.0 14.5 0.00 0.00 0.00 56 1018.3
20260507120038 13 57 6.4 11.3 0.00 0.00 0.00 55 1018.3
20260507114536 12 57 8.0 14.5 0.00 0.00 0.00 56 1018.2
20260507113034 12 94 8.0 16.1 0.00 0.00 0.00 58 1018.3
20260507111537 12 55 9.7 19.3 0.00 0.00 0.00 58 1018.3
20260507110035 12 54 11.3 17.7 0.00 0.00 0.00 57 1018.3
20260507104534 12 60 9.7 19.3 0.00 0.00 0.00 57 1018.2
20260507103035 11 86 9.7 17.7 0.00 0.00 0.00 59 1018.1
20260507101532 11 55 12.9 20.9 0.00 0.00 0.00 59 1018.1
20260507100047 11 42 11.3 20.9 0.00 0.00 0.00 58 1017.9
20260507094547 11 62 16.1 22.5 0.00 0.00 0.00 57 1017.8
20260507093046 10 70 17.7 22.5 0.00 0.00 0.00 58 1017.8
20260507091546 10 72 16.1 24.1 0.00 0.00 0.00 56 1017.7
20260507090045 10 61 16.1 22.5 0.00 0.00 0.00 54 1017.7
20260507084546 10 71 16.1 22.5 0.00 0.00 0.00 52 1017.7
20260507083047 10 64 16.1 22.5 0.00 0.00 0.00 49 1017.6
20260507081543 10 71 11.3 22.5 0.00 0.00 0.00 51 1017.5
20260507080039 10 65 6.4 20.9 0.00 0.00 0.00 56 1017.3
20260507074535 10 60 11.3 17.7 0.00 0.00 0.00 50 1017.1
20260507073034 9 61 11.3 19.3 0.00 0.00 0.00 49 1017.1
20260507071533 8 57 6.4 9.7 0.00 0.00 0.00 51 1017.1
20260507070030 8 34 8.0 17.7 0.00 0.00 0.00 46 1017.0
20260507064529 8 38 9.7 17.7 0.00 0.00 0.00 48 1016.8
20260507063031 7 37 8.0 17.7 0.00 0.00 0.00 50 1016.8
20260507061529 6 44 8.0 17.7 0.00 0.00 0.00 54 1016.8
20260507060026 6 43 3.2 8.0 0.00 0.00 0.00 56 1016.7
20260507054524 5 17 1.6 8.0 0.00 0.00 0.00 58 1016.6
20260507053024 5 10 3.2 8.0 0.00 0.00 0.00 59 1016.5
20260507051522 3 22 4.8 14.5 0.00 0.00 0.00 63 1016.4
20260507050036 2 19 3.2 9.7 0.00 0.00 0.00 67 1016.3
20260507044529 2 278 1.6 8.0 0.00 0.00 0.00 70 1016.2
20260507043027 1 287 1.6 8.0 0.00 0.00 0.00 71 1016.1
20260507041542 1 268 3.2 6.4 0.00 0.00 0.00 71 1016.0
20260507040016 1 360 1.6 6.4 0.00 0.00 0.00 70 1015.9
20260507034515 1 268 1.6 6.4 0.00 0.00 0.00 70 1015.7
20260507033014 1 264 1.6 6.4 0.00 0.00 0.00 69 1015.6
20260507031511 1 5 1.6 4.8 0.00 0.00 0.00 69 1015.5
20260507030012 2 5 1.6 9.7 0.00 0.00 0.00 69 1015.4
20260507024510 2 265 1.6 8.0 0.00 0.00 0.00 69 1015.4
20260507023008 2 268 1.6 4.8 0.00 0.00 0.00 67 1015.2
20260507021505 2 36 3.2 8.0 0.00 0.00 0.00 64 1015.2
20260507020006 2 11 0.0 3.2 0.00 0.00 0.00 63 1015.1
20260507014510 3 11 0.0 3.2 0.00 0.00 0.00 62 1015.0
20260507013115 3 12 0.0 4.8 0.00 0.00 0.00 61 1014.9
20260507011557 4 290 1.6 3.2 0.00 0.00 0.00 59 1014.8
20260507010003 4 9 1.6 8.0 0.00 0.00 0.00 57 1014.7
20260507004600 4 247 1.6 14.5 0.00 0.00 0.00 55 1014.7
20260507003059 4 296 1.6 11.3 0.00 0.00 0.00 55 1014.6
20260507001620 5 5 1.6 8.0 0.00 0.00 0.00 55 1014.5
20260507000042 5 242 1.6 8.0 0.00 0.00 0.00 55 1014.4
20260506234539 5 244 4.8 11.3 0.00 0.00 0.00 52 1014.3
20260506233043 5 246 4.8 11.3 0.00 0.00 0.00 51 1014.3
20260506231540 5 262 3.2 9.7 0.00 0.00 0.00 51 1014.2
20260506230044 6 264 4.8 16.1 0.00 0.00 0.00 51 1014.2
20260506224542 6 248 6.4 17.7 0.00 0.00 0.00 50 1014.0
20260506223051 6 263 6.4 14.5 0.00 0.00 0.00 51 1014.0
20260506221537 6 258 3.2 11.3 0.00 0.00 0.00 49 1014.0
20260506220030 7 237 6.4 19.3 0.00 0.00 0.00 48 1013.8
20260506214528 7 225 9.7 19.3 0.00 0.00 0.00 47 1013.6
20260506213026 7 262 9.7 19.3 0.00 0.00 0.00 47 1013.5
20260506211524 7 259 11.3 22.5 0.00 0.00 0.00 46 1013.3
20260506210021 7 232 14.5 24.1 0.00 0.00 0.00 46 1013.3
20260506204519 7 238 11.3 19.3 0.00 0.00 0.00 47 1013.2
20260506203021 8 238 12.9 22.5 0.00 0.00 0.00 47 1013.1
20260506201513 8 229 9.7 19.3 0.00 0.00 0.00 46 1013.0
20260506200015 8 235 9.7 22.5 0.00 0.00 0.00 45 1013.0
20260506194513 9 243 8.0 22.5 0.00 0.00 0.00 45 1012.9
20260506193010 9 271 8.0 19.3 0.00 0.00 0.00 44 1012.8
20260506191510 9 242 6.4 14.5 0.00 0.00 0.00 50 1012.6
20260506190100 9 234 8.0 19.3 0.00 0.00 0.00 56 1012.5
20260506184558 10 195 0.0 4.8 0.00 0.00 0.00 65 1012.4
20260506183057 10 159 0.0 3.2 0.00 0.00 0.00 65 1012.2
20260506181555 10 159 0.0 4.8 0.00 0.00 0.00 66 1012.2
20260506180005 11 156 0.0 4.8 0.00 0.00 0.00 67 1012.1
20260506174504 11 159 1.6 6.4 0.00 0.00 0.00 60 1012.1
20260506173004 12 160 3.2 9.7 0.00 0.00 0.00 57 1011.9
20260506171505 12 157 4.8 12.9 0.00 0.00 0.00 55 1011.9
20260506170059 12 176 4.8 11.3 0.00 0.00 0.00 54 1012.0
20260506164557 12 161 6.4 14.5 0.00 0.00 0.00 52 1012.1
20260506163100 12 173 6.4 17.7 0.00 0.00 0.00 49 1012.2
20260506161558 12 173 6.4 16.1 0.00 0.00 0.00 48 1012.3
20260506160106 12 173 8.0 17.7 0.00 0.00 0.00 47 1012.3
20260506154553 11 150 6.4 14.5 0.00 0.00 0.00 64 1012.5
20260506153051 11 166 4.8 8.0 0.00 0.00 0.00 69 1012.5
20260506151549 10 126 9.7 16.1 0.00 0.00 0.00 72 1012.6
20260506150007 10 130 8.0 14.5 0.00 0.00 0.00 72 1012.7
20260506144501 11 149 6.4 14.5 0.00 0.00 0.00 69 1012.9
20260506143059 12 134 4.8 12.9 0.00 0.00 0.00 66 1013.0
20260506141558 12 135 8.0 14.5 0.00 0.00 0.00 62 1013.0
20260506140042 12 144 9.7 14.5 0.00 0.00 0.00 60 1013.2
20260506134605 12 175 9.7 17.7 0.00 0.00 0.00 56 1013.3
20260506133030 12 115 9.7 16.1 0.00 0.00 0.00 55 1013.4